Location: Amsterdam
(30.7274°N, 84.4357°W)
Time: 06:23:17
(UTC+00:00)

Tiros 1 - Pass Details

Date: 23 February 2026
Orbit: 618 x 649 km, 48.4° (Epoch: 5 March)

Event Time Altitude Azimuth Distance (km) Brightness Sun altitude
Rises 11:31:46 0° 239° (WSW) 2,929 - -9.1°
Exits shadow 11:33:14 - 242° (WSW) 2,361 9.5 -8.8°
Reaches altitude 10° 11:34:08 10° 244° (WSW) 2,017 9.2 -8.6°
Maximum altitude 11:38:41 54° 322° (NW) 767 7.3 -7.6°
Drops below altitude 10° 11:43:13 10° 40° (NE) 2,004 10.2 -6.6°
Sets 11:45:34 0° 45° (NE) 2,908 11.1 -6.1°
